Home > Time Zones > World Clock > Weather > Japan > Tsu > Past weeks

Flag for Japan Weather past 2 weeks in Tsu, Japan

Now
40 °F

Overcast.


Feels Like: 37 °F
Forecast: 36 / 45 °F
Wind: 5 mph from West

Location: Tsu

Current Time: Jan 29, 2015 at 10:29:46 PM

Latest Report: Jan 29, 2015 at 9:00 PM


Visibility: 16 mi

Pressure: 30.29 "Hg

Humidity: 57%

Dew point: 26 °F

Location of TsuLocation

Historic Weather in Tsu — Graph

°F

Tsu temperature yesterday

Maximum temperature yesterday: 44 °F (at 1:00 PM)
Minimum temperature yesterday: 35 °F (at 10:00 PM)
Average temperature yesterday: 39 °F

Past Weeks' High & Low Weather Summary

 TemperatureHumidityPressure
High55 °F (Jan 27, 9:00 AM)96% (Jan 22, 2:00 PM)30.40 "Hg (Jan 22, 2:00 PM)
Low33 °F (Jan 29, 5:00 AM)36% (Jan 24, 2:00 PM)29.61 "Hg (Jan 23, 1:00 AM)
Average43 °F65%30.10 "Hg
* Reported Jan 14 9:00 PM — Jan 29 9:00 PM, Tsu, Weather by CustomWeather, © 2014

Note: Actual official high and low records may vary slightly from our data, if they occured in-between our weather recording intervals... More about our weather records

Advertising

Tsu weather history for previous 24 hours

 ConditionsComfort  
Time TempWeatherWind HumidityBarometerVisibility
9:00 PM
Jan 29
40 °FOvercast.5 mph57%30.29 "Hg16 mi
8:00 PM41 °FQuite cool.5 mph55%30.31 "HgN/A
7:00 PM41 °FQuite cool.3 mph55%30.31 "HgN/A
6:00 PM43 °FQuite cool.1 mph46%30.33 "HgN/A
5:00 PM43 °FQuite cool.No wind47%30.30 "HgN/A
4:00 PM43 °FQuite cool.5 mph44%30.27 "HgN/A
3:00 PM44 °FOvercast.6 mph44%30.26 "Hg25 mi
2:00 PM43 °FQuite cool.10 mph42%30.29 "HgN/A
1:00 PM43 °FQuite cool.9 mph42%30.30 "HgN/A
12:00 PM44 °FQuite cool.6 mph38%30.32 "HgN/A
11:00 AM41 °FQuite cool.5 mph46%30.34 "HgN/A
10:00 AM40 °FQuite cool.3 mph47%30.37 "HgN/A
9:00 AM38 °FOvercast.6 mph57%30.40 "Hg25 mi
8:00 AM35 °FChilly.3 mph66%30.40 "HgN/A
7:00 AM33 °FChilly.6 mph72%30.40 "HgN/A
6:00 AM34 °FChilly.7 mph66%30.37 "HgN/A
5:00 AM33 °FChilly.3 mph69%30.35 "HgN/A
4:00 AM34 °FChilly.8 mph66%30.34 "HgN/A
3:00 AM34 °FChilly.10 mph65%30.36 "HgN/A
2:00 AM33 °FChilly.6 mph65%30.36 "HgN/A
1:00 AM34 °FChilly.7 mph65%30.35 "HgN/A
12:00 AM34 °FChilly.5 mph63%30.34 "HgN/A
11:00 PM
Jan 28
35 °FChilly.6 mph59%30.34 "HgN/A
10:00 PM35 °FChilly.6 mph62%30.34 "HgN/A
Weather by CustomWeather, © 2014

See weather overviewHow to use our weather pages